Location: Bathurst
(33.4193°S, 149.5775°E)
Time: 10:41:54
(UTC+10:00)

Vanguard 1 Rocket - Pass Details

Date: 16 June 2021
Orbit: 650 x 4226 km, 34.3° (Epoch: 02 August)

Event Time Altitude Azimuth Distance (km) Brightness Sun altitude
Rises 13:47:23 0° 261° (W) 5,476 11.6 28.0°
Reaches altitude 10° 13:51:45 10° 261° (W) 3,917 11.0 27.5°
Maximum altitude 14:00:48 86° 349° (NNW) 1,020 8.2 26.6°
Drops below altitude 10° 14:05:57 10° 76° (ENE) 2,300 9.4 26.1°
Sets 14:07:55 0° 76° (ENE) 3,089 10.0 25.8°
